Wind_Speed
2 3 3 3 3 4 5 4 4 5 6 6 7 7 7 7 8 8 8 8 9 9 9 9 9 8 8 8 8 8 7 8 9 9 8 9 9 9 9 9 9 9 9
3 3 3 3 3 4 4 5 5 5 5 6 6 7 7 8 8 9 9 9 10 10 10 10 10 9 9 8 8 9 8 8 9 9 9 9 10 10 10 10 10 10 10
3 3 3 4 4 5 5 5 5 5 5 6 6 6 6 7 8 8 9 9 10 10 10 10 10 10 10 9 9 9 10 10 10 11 11 11 11 11 11 12 12 12 11
4 4 4 4 4 5 5 5 5 6 6 5 5 5 6 6 7 8 8 9 9 10 10 10 10 10 10 10 10 10 11 11 11 12 12 12 12 12 12 13 13 13 13
5 5 5 4 4 4 5 5 6 6 5 5 6 6 6 7 7 7 8 9 9 10 10 11 11 11 11 11 11 11 12 12 12 13 13 13 13 13 14 14 15 14 13
5 5 5 5 5 5 4 4 4 5 6 6 6 6 7 7 8 8 8 8 9 10 10 10 10 10 11 11 12 12 12 12 13 13 13 13 13 13 14 15 15 15 15
5 5 5 5 5 5 5 4 4 5 5 6 6 6 7 8 8 9 10 9 10 10 10 11 11 11 11 12 13 13 13 13 13 13 13 13 14 14 14 15 15 14 15
5 6 5 5 5 5 4 4 5 5 5 6 6 6 7 8 9 9 10 10 10 11 11 11 11 12 11 12 13 13 13 13 13 14 15 15 15 15 16 16 16 16 15
6 5 5 5 5 5 5 5 5 5 6 6 7 7 7 8 9 9 10 10 10 11 10 11 11 12 12 12 12 12 12 13 13 14 15 15 15 15 15 16 17 17 17
5 6 6 5 5 5 5 5 5 6 6 6 7 7 8 8 8 9 9 9 10 10 10 10 11 12 12 12 12 12 13 13 13 13 13 13 14 14 15 16 17 17 17
6 6 6 6 5 5 5 6 6 6 7 7 7 7 8 8 8 8 8 9 9 9 9 10 10 11 12 11 11 11 12 12 12 12 12 12 13 14 14 15 16 17 17
6 6 6 6 6 6 6 6 6 6 6 6 7 7 7 7 8 8 8 8 8 9 10 10 11 11 11 11 11 11 11 11 11 12 12 12 12 13 14 15 16 16 16
6 7 6 6 6 6 6 6 6 6 6 6 6 6 7 7 8 8 8 8 8 9 10 10 11 11 11 10 10 11 11 11 12 12 12 12 12 13 13 14 15 15 16
7 7 7 7 7 7 6 6 7 7 7 7 7 7 7 7 7 8 9 9 9 9 10 10 10 10 10 10 10 10 11 12 12 12 12 12 12 12 12 13 13 14 15
7 7 7 7 7 7 6 6 6 6 7 7 7 7 7 7 7 8 8 8 9 9 9 9 9 9 9 9 9 9 10 11 11 11 11 11 11 12 12 12 13 13 13
7 7 7 7 7 7 7 6 7 7 7 7 7 7 7 7 8 7 7 8 8 8 8 9 9 8 9 9 9 9 10 10 10 10 11 11 12 12 12 12 13 13 13
6 6 6 7 7 7 7 7 7 7 7 7 7 7 6 7 7 7 7 7 8 9 8 8 9 8 9 9 9 9 10 10 10 10 10 11 11 12 12 12 13 13 14
7 7 7 7 8 8 7 7 7 7 7 7 7 6 6 6 7 7 7 7 8 8 8 8 8 8 8 9 9 10 10 10 10 11 11 11 11 11 11 12 13 13 14
7 7 7 8 8 8 7 7 7 7 6 6 6 6 6 6 7 7 8 8 7 7 7 7 8 8 9 10 10 10 11 11 11 12 12 12 12 11 11 11 12 12 12
7 8 8 8 8 8 7 7 7 7 7 6 6 6 7 7 8 8 8 8 7 7 8 8 9 9 10 10 11 11 11 11 12 12 11 11 11 11 10 10 11 12 12
7 8 8 8 8 7 7 7 7 7 7 7 7 7 8 8 8 8 8 8 8 8 8 8 9 10 10 10 11 11 11 11 10 11 11 11 11 11 10 10 11 12 12
8 8 8 9 8 8 8 8 8 8 8 8 7 8 8 9 9 9 8 8 9 9 9 9 9 9 10 11 11 12 11 11 10 11 11 11 11 11 11 11 11 12 12
8 9 9 9 9 9 9 10 9 8 8 8 8 9 9 9 10 10 10 10 9 9 9 10 10 9 9 10 10 10 10 9 9 10 11 11 11 12 11 11 11 12 13
9 9 9 9 10 10 10 10 10 9 9 9 9 10 10 10 10 11 11 10 10 9 9 9 9 9 9 9 9 9 9 9 9 10 11 11 11 11 12 12 12 12 12
10 10 10 10 11 11 11 11 10 10 10 10 10 11 11 11 11 11 10 10 10 9 9 9 9 9 8 8 9 9 9 9 10 10 11 13 13 12 12 13 13 13 13
11 11 11 11 11 11 11 11 11 11 11 11 11 11 11 11 11 11 10 10 10 9 9 9 9 9 9 9 9 9 10 10 10 11 11 12 13 13 13 13 13 13 14
Wind_Direction
291 282 272 265 266 271 267 261 260 258 255 255 253 249 244 243 243 243 245 243 237 232 233 235 237 243 238 237 242 248 249 239 227 224 226 227 231 234 233 233 233 235 237
292 288 278 263 269 274 269 264 265 261 258 256 250 245 241 242 246 249 247 241 242 237 236 236 239 243 243 241 242 247 242 237 229 232 239 241 240 239 237 234 237 239 237
309 306 292 274 276 278 274 270 264 261 259 258 249 243 239 239 247 251 245 241 239 239 240 240 240 243 246 241 240 243 242 239 237 238 242 246 246 242 241 241 241 238 239
320 314 297 276 277 276 274 265 261 257 258 256 250 243 239 241 243 246 244 241 241 241 240 242 241 240 244 242 241 243 245 241 241 243 243 247 250 245 244 244 243 243 242
319 318 310 291 285 281 276 271 265 254 253 253 248 245 246 246 247 245 246 245 246 245 244 244 241 243 244 244 244 242 244 243 244 247 247 249 252 251 247 246 244 244 246
325 329 333 323 302 293 286 277 266 253 253 250 250 252 252 251 248 252 249 249 250 250 250 249 245 245 248 248 245 243 245 245 247 250 250 251 251 251 248 247 247 246 249
325 324 327 320 308 296 286 280 269 258 256 255 257 258 258 255 252 255 255 255 253 252 253 256 255 253 251 250 247 245 247 249 251 253 254 253 254 253 251 251 252 250 251
319 317 318 316 304 295 284 279 271 261 264 260 258 259 260 260 258 261 262 259 258 257 256 256 258 257 254 252 249 248 247 245 248 251 253 256 257 254 252 252 252 252 250
318 313 311 307 299 293 290 286 279 269 267 266 266 263 264 264 263 263 265 265 264 260 261 261 260 260 257 254 252 251 251 250 249 252 255 256 255 254 252 252 253 255 254
320 313 308 303 297 291 285 288 288 282 276 274 274 272 272 274 272 269 267 268 266 266 267 264 263 262 260 255 251 253 253 253 253 254 254 255 255 254 255 255 256 256 256
319 314 308 303 297 292 289 289 290 288 277 278 281 276 275 278 278 276 270 270 271 270 268 266 263 259 258 252 248 250 251 250 253 253 255 257 259 258 258 258 259 258 260
319 317 312 306 298 292 288 288 291 291 281 280 283 280 277 277 276 276 275 274 273 271 270 268 266 264 261 254 249 249 250 249 252 254 256 257 259 261 259 259 259 262 263
318 316 312 304 298 296 293 288 290 289 285 284 287 284 278 276 275 275 276 277 275 275 275 272 269 266 264 257 253 252 251 252 254 253 255 255 260 261 261 261 264 265 265
321 316 312 306 302 300 296 289 289 289 284 285 287 286 282 277 276 272 273 277 277 278 278 276 275 270 261 256 257 256 254 256 256 253 255 257 262 265 265 266 269 271 271
317 318 317 312 305 302 297 293 293 291 287 284 283 282 283 280 279 275 271 276 280 280 280 280 276 267 258 254 256 256 257 259 257 251 254 258 263 265 266 269 272 274 272
316 317 319 316 312 309 301 295 296 297 294 287 284 283 284 285 282 280 277 276 281 280 281 278 276 264 257 257 259 258 257 257 255 255 256 258 262 265 266 267 269 270 271
317 318 318 318 317 314 307 299 296 296 296 292 289 284 286 288 283 288 284 281 284 283 279 273 267 263 260 261 259 259 258 256 254 254 253 257 260 264 266 267 269 269 271
315 317 317 317 318 316 311 307 303 300 299 294 298 291 290 296 293 290 291 289 287 285 282 276 272 268 267 262 259 259 259 256 256 255 255 259 262 265 268 270 272 274 275
312 315 317 317 315 314 310 306 306 304 304 302 301 293 292 300 300 299 297 296 290 285 286 284 280 274 269 266 264 263 262 258 256 258 259 261 263 265 267 268 269 273 276
309 312 313 314 312 313 312 308 303 300 299 298 298 296 296 298 300 303 304 300 292 286 284 285 282 278 274 270 265 266 266 264 257 255 258 262 267 269 271 275 273 275 277
306 312 314 312 313 310 308 305 299 299 296 295 293 298 300 300 300 303 306 303 289 285 283 283 282 280 276 274 270 271 270 268 261 256 260 264 271 275 278 277 278 279 280
301 304 309 311 312 309 307 306 300 299 296 295 296 300 301 303 304 304 304 298 290 286 284 286 284 278 274 272 271 273 274 271 267 264 263 263 268 272 277 276 277 280 285
300 301 304 306 306 307 307 306 301 297 296 292 293 296 299 300 303 303 303 299 292 288 285 285 284 280 277 272 270 268 269 269 274 271 266 267 267 271 275 275 280 283 285
298 302 303 301 301 303 304 303 301 298 295 291 291 294 297 300 301 303 304 300 295 291 287 286 282 280 279 274 270 268 267 266 271 273 273 277 280 281 280 284 288 286 284
297 299 299 299 296 296 298 300 298 298 297 293 292 294 297 301 302 304 306 301 297 291 287 286 283 281 278 274 270 271 272 271 269 269 276 279 282 285 288 291 293 291 290
294 295 296 296 294 292 292 292 292 294 295 294 292 292 296 299 301 303 305 301 296 292 286 283 283 280 278 275 274 275 276 274 271 272 275 280 283 285 289 292 291 291 294
Height
5878 5878 5877 5876 5876 5876 5876 5875 5875 5875 5875 5875 5874 5874 5874 5874 5874 5874 5874 5875 5875 5875 5876 5876 5876 5876 5876 5876 5876 5875 5873 5871 5874 5876 5878 5879 5880 5880 5881 5881 5882 5882 5882
5877 5876 5876 5875 5875 5875 5875 5874 5874 5874 5874 5873 5873 5873 5873 5873 5873 5873 5873 5873 5873 5873 5874 5874 5874 5875 5875 5875 5874 5874 5873 5872 5874 5876 5877 5878 5878 5879 5879 5880 5880 5881 5881
5877 5875 5875 5874 5874 5874 5873 5873 5873 5873 5873 5872 5872 5872 5872 5872 5872 5871 5871 5871 5871 5872 5872 5873 5873 5873 5873 5873 5873 5873 5873 5873 5874 5875 5876 5876 5877 5877 5878 5878 5878 5879 5879
5876 5874 5873 5873 5873 5873 5872 5872 5872 5871 5871 5871 5871 5871 5871 5871 5870 5870 5870 5870 5870 5870 5871 5871 5871 5871 5871 5872 5872 5872 5872 5873 5873 5874 5874 5875 5875 5875 5876 5876 5877 5877 5878
5875 5874 5872 5872 5872 5871 5871 5870 5870 5870 5870 5870 5870 5869 5869 5869 5869 5869 5868 5868 5868 5869 5869 5869 5869 5869 5869 5870 5870 5870 5871 5871 5872 5872 5872 5873 5873 5873 5873 5874 5874 5875 5875
5874 5873 5872 5871 5871 5870 5870 5869 5869 5868 5869 5869 5868 5868 5868 5868 5868 5868 5867 5867 5867 5867 5867 5867 5867 5867 5867 5867 5868 5868 5869 5869 5870 5870 5870 5870 5871 5871 5871 5872 5872 5873 5873
5873 5872 5872 5871 5870 5869 5869 5868 5868 5868 5868 5867 5867 5867 5867 5866 5866 5866 5866 5866 5865 5865 5865 5865 5865 5865 5865 5865 5866 5866 5866 5867 5867 5868 5868 5868 5868 5869 5869 5869 5870 5870 5870
5873 5872 5871 5870 5870 5869 5868 5868 5867 5867 5866 5866 5866 5865 5865 5865 5865 5864 5864 5864 5864 5864 5863 5863 5863 5863 5863 5863 5863 5863 5864 5864 5865 5865 5865 5865 5866 5866 5866 5866 5867 5867 5868
5872 5871 5870 5870 5869 5868 5868 5867 5866 5866 5865 5865 5864 5864 5864 5863 5863 5863 5862 5862 5862 5862 5861 5861 5861 5860 5860 5861 5861 5861 5861 5862 5862 5862 5862 5863 5863 5863 5863 5863 5864 5864 5865
5871 5870 5869 5869 5868 5867 5867 5866 5865 5864 5864 5863 5863 5863 5862 5862 5861 5861 5860 5860 5860 5859 5859 5859 5858 5858 5858 5858 5858 5858 5859 5859 5859 5859 5860 5860 5860 5860 5860 5860 5861 5861 5861
5871 5870 5869 5868 5867 5866 5866 5865 5864 5863 5863 5862 5862 5861 5861 5860 5860 5859 5858 5858 5857 5857 5857 5856 5855 5855 5855 5855 5856 5856 5856 5856 5856 5856 5857 5857 5857 5857 5857 5857 5858 5858 5858
5870 5869 5868 5867 5866 5865 5864 5864 5863 5862 5861 5861 5860 5860 5859 5859 5858 5857 5857 5856 5855 5855 5854 5853 5853 5853 5852 5853 5853 5853 5853 5854 5854 5854 5854 5854 5854 5854 5854 5854 5854 5854 5855
5869 5868 5867 5866 5865 5864 5863 5862 5862 5861 5860 5860 5859 5858 5858 5857 5857 5856 5855 5854 5854 5853 5852 5851 5850 5850 5850 5850 5850 5851 5851 5851 5851 5851 5851 5851 5852 5851 5851 5851 5851 5851 5851
5868 5867 5866 5865 5864 5863 5862 5861 5861 5860 5859 5858 5857 5857 5856 5856 5855 5854 5853 5853 5852 5851 5849 5848 5847 5847 5847 5847 5848 5848 5848 5848 5848 5848 5849 5849 5849 5849 5849 5848 5848 5848 5848
5867 5866 5865 5864 5863 5862 5861 5860 5859 5859 5858 5857 5856 5855 5855 5854 5853 5852 5851 5851 5850 5849 5847 5846 5844 5843 5844 5844 5845 5846 5846 5845 5845 5845 5846 5846 5846 5846 5846 5846 5846 5845 5845
5866 5865 5864 5863 5862 5861 5860 5859 5858 5857 5856 5855 5854 5854 5853 5852 5852 5851 5850 5849 5848 5847 5846 5844 5842 5841 5842 5842 5843 5843 5843 5843 5843 5843 5843 5844 5844 5844 5844 5843 5843 5842 5842
5866 5865 5863 5862 5861 5860 5859 5858 5857 5856 5855 5854 5853 5852 5851 5851 5850 5849 5848 5847 5846 5845 5844 5842 5841 5841 5841 5841 5841 5841 5841 5841 5841 5841 5841 5841 5841 5841 5841 5841 5840 5840 5839
5865 5864 5862 5861 5860 5858 5857 5856 5855 5854 5853 5852 5851 5851 5850 5849 5848 5847 5846 5845 5844 5843 5842 5841 5840 5840 5839 5839 5839 5839 5839 5839 5839 5839 5839 5839 5839 5838 5838 5838 5837 5837 5836
5864 5862 5861 5860 5859 5857 5856 5855 5854 5853 5852 5851 5850 5849 5848 5847 5846 5845 5844 5843 5842 5841 5840 5839 5838 5838 5838 5837 5837 5837 5836 5836 5836 5836 5836 5836 5836 5836 5835 5835 5834 5834 5833
5862 5861 5860 5859 5857 5856 5855 5854 5852 5851 5850 5849 5848 5847 5846 5845 5844 5844 5842 5841 5840 5839 5838 5837 5837 5836 5835 5835 5835 5834 5834 5834 5833 5833 5833 5833 5833 5833 5833 5832 5831 5831 5830
5861 5860 5858 5857 5856 5855 5853 5852 5851 5850 5849 5848 5847 5846 5845 5844 5843 5842 5841 5839 5838 5837 5836 5835 5834 5834 5833 5833 5832 5832 5832 5831 5831 5831 5831 5831 5830 5830 5830 5829 5829 5828 5827
5860 5858 5857 5856 5855 5853 5852 5850 5849 5848 5847 5846 5845 5844 5843 5842 5841 5840 5839 5837 5836 5835 5834 5833 5832 5832 5831 5830 5830 5830 5829 5830 5829 5829 5828 5828 5828 5827 5827 5826 5826 5825 5824
5858 5857 5856 5854 5853 5852 5850 5849 5848 5847 5845 5844 5843 5842 5841 5840 5839 5838 5836 5835 5834 5833 5832 5831 5830 5829 5829 5828 5828 5828 5827 5827 5826 5826 5826 5826 5825 5825 5824 5823 5822 5822 5821
5856 5855 5854 5853 5851 5850 5849 5847 5846 5845 5844 5843 5842 5841 5839 5838 5837 5835 5834 5833 5832 5830 5830 5829 5828 5827 5826 5826 5825 5825 5825 5825 5825 5824 5823 5823 5822 5822 5821 5820 5819 5818 5817
5854 5853 5852 5851 5849 5848 5847 5845 5844 5843 5842 5841 5840 5839 5837 5836 5835 5833 5832 5831 5829 5828 5827 5826 5825 5825 5824 5824 5823 5823 5822 5822 5822 5822 5821 5820 5820 5819 5818 5817 5816 5815 5814
5852 5850 5849 5848 5847 5846 5844 5843 5842 5840 5840 5839 5837 5836 5835 5834 5832 5831 5829 5828 5827 5826 5825 5824 5823 5823 5822 5821 5821 5820 5820 5820 5819 5819 5818 5817 5817 5816 5815 5814 5813 5812 5811